Hourly Data Report for July 24, 2021

CAPE RACE (AUT)
NEWFOUNDLAND
Current Station Operator: ECCC - MSC

46°39'36.000" N
53°04'35.000" W
26.50 m
8401000
71800
WRA

Download Data

Hourly Data (July 2021)
Hourly Data Report for July 24, 2021
TIME
LST
Temp Definition
°C
Dew Point Definition
°C
Rel Hum Definition
%
Precip. Amount Definition
mm

Wind Dir Definition
10's deg

Wind Spd Definition
km/h
Visibility Definition
km
Stn Press Definition
kPa
Hmdx Definition


Wind Chill Definition


Weather Definition


00:30 13.3 LegendMM LegendMM 0.0 25 17   101.06     LegendNANA
01:30 13.2 LegendMM LegendMM 0.0 26 20   101.08     LegendNANA
02:30 12.2 LegendMM LegendMM 0.0 26 21   101.10     LegendNANA
03:30 11.5 LegendMM LegendMM 0.0 26 19   101.11     LegendNANA
04:30 11.6 LegendMM LegendMM 0.0 26 19   101.13     LegendNANA
05:30 11.7 LegendMM LegendMM 0.0 25 15   101.16     LegendNANA
06:30 13.5 LegendMM LegendMM 0.0 25 19   101.16     LegendNANA
07:30 14.0 LegendMM LegendMM 0.0 25 24   101.23     LegendNANA
08:30 15.2 LegendMM LegendMM 0.0 24 27   101.24     LegendNANA
09:30 14.7 LegendMM LegendMM 0.0 21 22   101.27     LegendNANA
10:30 14.8 LegendMM LegendMM 0.0 22 19   101.28     LegendNANA
11:30 14.7 LegendMM LegendMM 0.0 21 18   101.27     LegendNANA
12:30 16.9 LegendMM LegendMM 0.0 22 26   101.24     LegendNANA
13:30 16.6 LegendMM LegendMM 0.0 21 27   101.24     LegendNANA
14:30 15.5 LegendMM LegendMM 0.0 21 19   101.25     LegendNANA
15:30 15.6 LegendMM LegendMM 0.0 21 18   101.20     LegendNANA
16:30 15.1 LegendMM LegendMM 0.0 21 18   101.17     LegendNANA
17:30 13.6 LegendMM LegendMM 0.0 20 25   101.14     LegendNANA
18:30 14.1 LegendMM LegendMM 0.0 22 22   101.18     LegendNANA
19:30 13.4 LegendMM LegendMM 0.0 23 25   101.22     LegendNANA
20:30 13.3 LegendMM LegendMM 0.0 22 20   101.26     LegendNANA
21:30 13.1 LegendMM LegendMM 0.0 23 22   101.29     LegendNANA
22:30 13.1 LegendMM LegendMM 0.0 23 22   101.29     LegendNANA
23:30 12.6 LegendMM LegendMM 0.0 23 23   101.28     LegendNANA

Notes on Data Quality.

Legend

  • E = Estimated
  • M = Missing
  • NA = Not Available*
  • [empty] = Indicates an unobserved value
Date modified: